TimePDT,TemperatureF,Dew PointF,Humidity,Sea Level PressureIn,VisibilityMPH,Wind Direction,Wind SpeedMPH,Gust SpeedMPH,PrecipitationIn,Events,Conditions,WindDirDegrees,DateUTC
12:15 AM,44.6,35.6,71,30.09,10.0,Calm,Calm,-,N/A,,Clear,0,2013-05-18 07:15:00
12:35 AM,44.6,35.6,71,30.10,10.0,Calm,Calm,-,N/A,,Clear,0,2013-05-18 07:35:00
12:55 AM,42.8,35.6,76,30.10,10.0,Calm,Calm,-,N/A,,Clear,0,2013-05-18 07:55:00
1:15 AM,42.8,35.6,76,30.10,10.0,Calm,Calm,-,N/A,,Clear,0,2013-05-18 08:15:00
1:35 AM,41.0,35.6,81,30.11,10.0,Calm,Calm,-,N/A,,Clear,0,2013-05-18 08:35:00
1:55 AM,41.0,35.6,81,30.11,10.0,Calm,Calm,-,N/A,,Clear,0,2013-05-18 08:55:00
2:15 AM,41.0,35.6,81,30.11,10.0,Calm,Calm,-,N/A,,Clear,0,2013-05-18 09:15:00
2:35 AM,41.0,35.6,81,30.11,10.0,Calm,Calm,-,N/A,,Clear,0,2013-05-18 09:35:00
2:55 AM,39.2,35.6,87,30.11,10.0,NNE,3.5,-,N/A,,Clear,30,2013-05-18 09:55:00
3:15 AM,39.2,35.6,87,30.11,10.0,Calm,Calm,-,N/A,,Clear,0,2013-05-18 10:15:00
3:35 AM,39.2,33.8,81,30.11,10.0,NNE,3.5,-,N/A,,Clear,30,2013-05-18 10:35:00
3:55 AM,37.4,33.8,87,30.12,10.0,Calm,Calm,-,N/A,,Partly Cloudy,0,2013-05-18 10:55:00
4:15 AM,37.4,33.8,87,30.12,10.0,Calm,Calm,-,N/A,,Partly Cloudy,0,2013-05-18 11:15:00
4:35 AM,37.4,33.8,87,30.12,10.0,Calm,Calm,-,N/A,,Partly Cloudy,0,2013-05-18 11:35:00
4:55 AM,37.4,33.8,87,30.13,10.0,Calm,Calm,-,N/A,,Clear,0,2013-05-18 11:55:00
5:15 AM,37.4,33.8,87,30.13,10.0,Calm,Calm,-,N/A,,Clear,0,2013-05-18 12:15:00
5:35 AM,37.4,33.8,87,30.14,10.0,Calm,Calm,-,N/A,,Clear,0,2013-05-18 12:35:00
5:55 AM,37.4,33.8,87,30.15,10.0,Calm,Calm,-,N/A,,Clear,0,2013-05-18 12:55:00
6:15 AM,37.4,33.8,87,30.15,10.0,Calm,Calm,-,N/A,,Clear,0,2013-05-18 13:15:00
6:35 AM,37.4,33.8,87,30.16,10.0,Calm,Calm,-,N/A,,Clear,0,2013-05-18 13:35:00
6:55 AM,39.2,35.6,87,30.16,10.0,Calm,Calm,-,N/A,,Clear,0,2013-05-18 13:55:00
7:15 AM,39.2,35.6,87,30.17,10.0,Calm,Calm,-,N/A,,Clear,0,2013-05-18 14:15:00
7:35 AM,42.8,37.4,81,30.17,10.0,Calm,Calm,-,N/A,,Clear,0,2013-05-18 14:35:00
7:55 AM,44.6,37.4,76,30.17,10.0,Calm,Calm,-,N/A,,Clear,0,2013-05-18 14:55:00
8:15 AM,46.4,37.4,71,30.17,10.0,Calm,Calm,-,N/A,,Clear,0,2013-05-18 15:15:00
8:35 AM,48.2,37.4,66,30.17,10.0,Calm,Calm,-,N/A,,Clear,0,2013-05-18 15:35:00
8:55 AM,48.2,39.2,71,30.17,10.0,Calm,Calm,-,N/A,,Scattered Clouds,0,2013-05-18 15:55:00
9:15 AM,50.0,39.2,66,30.17,10.0,SSE,3.5,-,N/A,,Mostly Cloudy,160,2013-05-18 16:15:00
9:35 AM,53.6,37.4,54,30.16,10.0,South,4.6,-,N/A,,Overcast,170,2013-05-18 16:35:00
9:55 AM,53.6,35.6,51,30.16,10.0,SW,4.6,-,N/A,,Overcast,230,2013-05-18 16:55:00
10:15 AM,55.4,35.6,47,30.16,10.0,Calm,Calm,-,N/A,,Overcast,0,2013-05-18 17:15:00
10:35 AM,57.2,32.0,38,30.16,10.0,SSW,6.9,-,N/A,,Mostly Cloudy,210,2013-05-18 17:35:00
10:55 AM,59.0,32.0,36,30.16,10.0,WSW,6.9,-,N/A,,Overcast,250,2013-05-18 17:55:00
11:15 AM,60.8,32.0,34,30.15,10.0,SSW,9.2,-,N/A,,Mostly Cloudy,210,2013-05-18 18:15:00
11:35 AM,62.6,32.0,32,30.15,10.0,SW,13.8,19.6,N/A,,Mostly Cloudy,220,2013-05-18 18:35:00
11:55 AM,64.4,35.6,34,30.14,10.0,SSW,9.2,-,N/A,,Mostly Cloudy,200,2013-05-18 18:55:00
12:15 PM,66.2,37.4,35,30.14,10.0,West,9.2,-,N/A,,Partly Cloudy,260,2013-05-18 19:15:00
12:35 PM,66.2,37.4,35,30.13,10.0,WSW,9.2,19.6,N/A,,Partly Cloudy,240,2013-05-18 19:35:00
12:55 PM,66.2,39.2,37,30.13,10.0,SW,12.7,21.9,N/A,,Clear,230,2013-05-18 19:55:00
1:15 PM,66.2,39.2,37,30.14,10.0,WSW,13.8,26.5,N/A,,Scattered Clouds,250,2013-05-18 20:15:00
1:35 PM,66.2,39.2,37,30.14,10.0,WSW,9.2,24.2,N/A,,Mostly Cloudy,240,2013-05-18 20:35:00
1:55 PM,68.0,41.0,37,30.14,10.0,SSW,10.4,16.1,N/A,,Partly Cloudy,210,2013-05-18 20:55:00
2:15 PM,68.0,41.0,37,30.13,10.0,SW,9.2,26.5,N/A,,Partly Cloudy,230,2013-05-18 21:15:00
2:35 PM,69.8,41.0,35,30.14,10.0,West,9.2,16.1,N/A,,Scattered Clouds,260,2013-05-18 21:35:00
2:55 PM,69.8,39.2,33,30.14,10.0,SW,10.4,20.7,N/A,,Scattered Clouds,230,2013-05-18 21:55:00
3:15 PM,68.0,41.0,37,30.14,10.0,SW,10.4,24.2,N/A,,Partly Cloudy,220,2013-05-18 22:15:00
3:35 PM,68.0,41.0,37,30.15,10.0,WSW,11.5,26.5,N/A,,Clear,240,2013-05-18 22:35:00
3:55 PM,68.0,41.0,37,30.15,10.0,SW,12.7,24.2,N/A,,Partly Cloudy,230,2013-05-18 22:55:00
4:15 PM,68.0,39.2,35,30.15,10.0,SW,11.5,19.6,N/A,,Partly Cloudy,230,2013-05-18 23:15:00
4:35 PM,68.0,39.2,35,30.15,10.0,SW,15.0,24.2,N/A,,Partly Cloudy,230,2013-05-18 23:35:00
4:55 PM,68.0,37.4,33,30.15,10.0,SW,10.4,23.0,N/A,,Clear,220,2013-05-18 23:55:00
5:15 PM,66.2,37.4,35,30.15,10.0,WNW,8.1,16.1,N/A,,Clear,300,2013-05-19 00:15:00
5:35 PM,66.2,37.4,35,30.15,10.0,WSW,11.5,17.3,N/A,,Scattered Clouds,240,2013-05-19 00:35:00
5:55 PM,66.2,37.4,35,30.15,10.0,WSW,11.5,25.3,N/A,,Scattered Clouds,240,2013-05-19 00:55:00
6:15 PM,64.4,37.4,37,30.15,10.0,SW,11.5,18.4,N/A,,Scattered Clouds,230,2013-05-19 01:15:00
6:35 PM,64.4,37.4,37,30.15,10.0,West,6.9,20.7,N/A,,Partly Cloudy,270,2013-05-19 01:35:00
6:55 PM,64.4,37.4,37,30.15,10.0,West,10.4,18.4,N/A,,Clear,280,2013-05-19 01:55:00
7:15 PM,62.6,37.4,39,30.15,10.0,WNW,13.8,20.7,N/A,,Clear,290,2013-05-19 02:15:00
7:35 PM,62.6,35.6,37,30.15,10.0,NW,8.1,18.4,N/A,,Clear,310,2013-05-19 02:35:00
7:55 PM,60.8,35.6,39,30.15,10.0,West,9.2,18.4,N/A,,Clear,280,2013-05-19 02:55:00
8:15 PM,59.0,35.6,42,30.15,10.0,WNW,5.8,-,N/A,,Clear,290,2013-05-19 03:15:00
8:35 PM,59.0,35.6,42,30.16,10.0,NW,5.8,16.1,N/A,,Clear,310,2013-05-19 03:35:00
8:55 PM,59.0,37.4,45,30.16,10.0,WNW,4.6,-,N/A,,Scattered Clouds,300,2013-05-19 03:55:00
9:15 PM,57.2,37.4,48,30.17,10.0,Calm,Calm,-,N/A,,Scattered Clouds,0,2013-05-19 04:15:00
9:35 PM,57.2,37.4,48,30.17,10.0,South,3.5,-,N/A,,Scattered Clouds,180,2013-05-19 04:35:00
9:55 PM,53.6,39.2,58,30.18,10.0,Calm,Calm,-,N/A,,Scattered Clouds,0,2013-05-19 04:55:00
10:15 PM,53.6,39.2,58,30.19,10.0,Calm,Calm,-,N/A,,Partly Cloudy,0,2013-05-19 05:15:00
10:35 PM,48.2,37.4,66,30.19,10.0,Calm,Calm,-,N/A,,Scattered Clouds,0,2013-05-19 05:35:00
10:55 PM,48.2,37.4,66,30.20,10.0,NNE,3.5,-,N/A,,Scattered Clouds,20,2013-05-19 05:55:00
11:15 PM,46.4,37.4,71,30.21,10.0,NNE,5.8,-,N/A,,Scattered Clouds,20,2013-05-19 06:15:00
11:35 PM,46.4,35.6,66,30.21,10.0,NNE,3.5,-,N/A,,Scattered Clouds,30,2013-05-19 06:35:00
11:55 PM,46.4,35.6,66,30.22,10.0,Calm,Calm,-,N/A,,Mostly Cloudy,0,2013-05-19 06:55:00